Dewpoint
73 73 75 75 74 75 76 74 74 74 74 74 74 75 75 75 76 76 75 74 71 71 69 66 70 70 71 71 69 74 69 71 71 70 71 73 74 75 75 74 74 73 73 73 73 73 73 73 73 73 73 73 73 73 73 74 73 73 73 73 73 72 72 72 71 71 71 71 71 71 71 71 71 71 71 72 71 72 71 71 72 72 72 72 72
72 72 73 73 72 73 75 77 77 78 77 74 76 75 75 77 75 74 75 72 74 73 74 67 62 64 68 70 70 66 70 70 71 71 71 72 74 74 75 75 75 74 73 73 73 73 73 73 73 73 73 73 73 73 73 73 73 73 72 72 72 72 72 72 71 71 71 71 71 72 72 72 71 71 71 72 72 72 71 72 72 72 72 72 72
70 72 72 73 73 73 73 74 75 76 76 75 76 77 76 74 75 77 77 77 76 74 72 74 73 66 66 65 67 71 70 70 70 70 69 71 73 74 75 75 75 75 74 73 73 73 73 73 73 73 73 73 73 73 72 72 73 72 72 72 72 72 72 72 72 72 71 71 72 72 72 72 71 72 72 72 72 72 72 72 72 72 72 72 72
77 76 75 76 74 74 75 75 76 75 75 74 76 77 77 76 76 77 76 77 74 74 75 72 68 66 69 65 71 68 71 73 67 68 69 71 72 73 74 74 75 75 75 74 74 73 73 73 73 73 73 73 73 73 72 72 72 72 72 72 72 72 72 72 72 72 72 72 72 72 71 71 72 72 72 72 72 72 72 72 72 72 72 72 72
78 76 76 75 76 75 73 75 75 79 77 75 75 77 77 76 76 76 76 76 73 74 72 71 70 68 70 63 69 69 68 70 66 68 68 70 72 72 73 74 74 75 75 75 74 74 74 74 73 73 73 72 72 72 72 72 72 72 72 71 72 72 72 72 72 72 72 72 72 72 72 72 72 72 72 72 72 72 72 72 72 72 72 72 72
78 78 77 75 76 76 75 75 76 76 77 77 76 76 76 76 74 75 75 75 73 74 74 73 69 73 71 64 69 73 73 69 68 66 68 69 71 72 73 73 74 74 74 75 75 75 74 74 74 74 73 73 73 72 72 72 71 72 72 72 71 72 72 72 72 72 72 72 72 72 73 73 73 72 72 72 72 72 72 72 72 72 72 72 72
79 80 77 77 74 75 74 75 76 77 76 77 78 76 76 75 75 75 74 74 73 75 72 71 67 70 73 72 70 68 69 68 69 68 69 70 72 72 73 73 74 74 74 75 75 75 75 74 74 74 74 74 74 73 73 73 73 73 73 73 73 73 73 73 73 73 73 73 73 73 73 73 72 72 72 72 72 72 72 72 72 72 72 72 72
78 79 78 77 75 76 75 79 77 77 79 78 78 77 77 76 76 74 75 71 71 71 72 74 68 69 68 72 73 74 74 69 72 66 63 67 69 72 73 74 74 74 75 74 74 75 75 75 75 75 74 74 74 74 74 74 74 74 74 73 73 73 73 73 73 73 73 73 73 73 73 73 72 72 72 72 72 72 72 72 72 72 71 71 71
78 78 79 76 76 76 76 77 76 76 78 78 77 77 75 71 78 77 77 77 71 65 70 71 71 66 66 66 67 72 69 79 70 69 65 73 69 64 67 70 74 76 75 74 74 74 75 76 75 75 75 75 75 74 74 74 74 74 74 74 74 74 74 74 74 74 73 73 73 73 72 73 73 72 72 72 72 72 72 72 72 72 72 72 69
79 79 79 76 76 76 76 76 77 78 78 76 77 75 76 74 78 79 75 76 72 70 68 67 68 68 69 62 73 73 72 72 74 72 72 70 73 71 70 69 69 71 74 74 74 75 74 75 76 75 75 75 75 75 75 74 74 74 75 75 74 74 74 74 74 74 74 73 73 73 73 73 72 72 72 72 72 72 72 72 72 71 72 72 68
79 79 79 76 75 77 77 76 77 77 77 76 76 75 75 75 74 76 76 75 74 71 72 69 69 67 61 63 65 72 75 70 76 76 70 69 66 67 65 73 69 71 71 73 74 75 74 74 75 75 75 76 75 75 75 75 74 74 75 74 74 74 73 73 73 73 74 74 73 73 73 73 73 72 72 72 72 72 72 72 72 71 71 71 68
78 79 79 77 77 76 78 75 76 76 77 74 75 76 75 75 75 73 76 75 76 76 70 72 69 67 69 71 72 70 72 73 72 71 71 68 68 74 66 66 71 70 69 72 71 73 74 74 75 74 74 75 76 76 76 75 75 75 75 75 74 73 73 73 73 73 73 73 73 73 73 73 73 72 72 72 72 72 71 72 71 71 72 70 65
78 78 78 77 76 77 76 78 75 75 76 76 74 74 76 77 78 78 74 75 73 71 69 70 71 70 74 72 70 72 68 71 72 70 69 70 67 67 73 65 68 70 71 70 72 70 73 75 75 74 74 75 76 76 76 76 75 75 75 75 75 74 73 73 73 73 72 73 73 73 73 73 73 73 73 72 72 72 72 71 71 71 71 70 68
78 78 79 78 78 76 78 79 77 76 76 76 75 76 77 75 75 76 77 73 73 65 66 69 71 70 68 69 73 71 72 70 64 64 69 69 66 73 70 64 62 63 67 68 72 72 70 72 73 72 75 75 74 74 75 75 75 76 75 75 75 74 74 74 73 72 72 72 73 72 72 73 73 73 72 72 72 72 72 71 71 71 71 71 68
77 77 77 76 78 78 78 79 77 77 77 75 76 77 78 76 75 75 76 75 72 70 74 72 69 69 69 73 68 66 72 75 68 66 63 64 69 64 64 62 64 66 71 69 69 67 69 69 74 74 74 75 75 75 75 75 75 76 76 75 75 74 74 74 74 73 73 72 73 73 73 72 73 72 72 72 72 71 71 71 71 71 71 71 68
74 74 76 76 77 77 78 76 78 78 79 78 77 76 76 76 75 75 74 74 70 69 68 70 71 71 66 72 66 66 66 68 69 68 64 63 61 62 62 63 66 68 74 74 65 70 72 73 71 75 76 74 75 75 75 75 75 76 76 76 75 75 74 74 74 73 73 72 72 72 72 73 73 73 72 72 71 71 70 70 71 71 71 71 69
74 75 75 77 78 79 78 78 79 78 77 77 78 76 75 74 76 77 74 73 70 71 72 65 68 75 73 70 66 66 64 63 59 72 63 65 61 59 66 66 65 70 72 72 70 69 66 68 72 73 74 75 74 75 74 76 75 77 76 75 75 75 75 74 73 73 73 73 73 72 72 73 73 72 72 71 70 70 70 70 71 71 71 72 68
76 75 75 76 78 78 78 77 78 79 77 78 78 77 76 75 74 75 73 75 74 73 68 74 66 76 73 72 71 70 68 69 67 68 72 64 65 61 64 62 61 66 70 69 64 67 70 69 70 71 72 72 73 72 72 76 76 76 76 75 75 76 75 74 74 74 73 73 73 72 72 72 73 72 72 71 71 71 71 71 71 71 72 71 68
73 75 75 77 78 78 78 78 76 77 77 78 78 75 73 73 75 75 75 79 77 75 72 69 73 74 66 63 66 66 65 73 69 71 69 75 69 61 60 61 61 64 65 64 64 64 66 67 68 68 70 72 72 72 74 74 73 76 77 77 76 76 75 74 75 74 73 73 73 73 72 72 72 72 72 72 71 71 71 72 72 72 72 71 69
74 76 76 76 77 78 78 78 78 75 76 76 76 75 78 76 76 78 79 77 77 76 74 73 73 71 69 71 70 66 68 62 69 68 74 70 72 64 60 60 61 60 62 63 60 63 67 69 68 70 70 70 73 72 72 72 73 74 75 75 77 76 76 75 75 74 73 72 73 73 73 72 72 72 72 72 72 72 72 72 72 72 72 72 70
76 75 76 76 77 78 78 78 77 77 77 75 73 72 75 76 79 78 77 78 78 76 76 76 72 70 74 73 70 71 67 62 67 68 73 68 66 65 66 65 64 65 65 60 60 64 65 65 70 66 71 72 72 72 71 73 74 73 74 75 77 77 76 75 75 74 74 73 72 73 74 73 73 72 73 73 73 72 72 72 72 72 72 71 70
74 76 77 76 76 77 77 76 76 72 75 74 74 76 75 77 77 75 77 77 81 77 75 77 73 73 73 74 77 74 71 70 65 66 65 71 66 63 66 65 66 70 71 62 66 66 69 66 67 65 69 71 71 72 71 72 75 74 73 74 76 76 76 75 74 74 74 73 73 73 74 74 74 73 73 73 73 73 73 73 73 73 72 72 71
72 74 75 74 76 76 74 75 75 76 77 77 77 74 71 73 73 77 77 77 79 77 76 77 78 78 73 76 76 70 69 73 75 69 68 69 69 63 60 58 60 66 71 68 72 67 70 70 63 61 72 66 70 72 72 72 73 71 75 74 74 75 75 75 74 74 74 74 74 73 73 74 74 74 74 73 73 74 74 73 73 73 73 72 71
75 73 71 70 75 76 76 75 77 77 77 77 76 75 72 72 76 77 77 78 78 77 76 75 72 76 71 69 70 68 69 68 67 67 72 71 69 67 66 68 66 66 69 69 67 65 65 64 62 63 69 68 72 73 74 75 73 74 75 74 73 74 74 74 75 75 74 74 73 73 73 74 74 74 74 74 74 74 74 74 74 73 72 72 72
74 72 71 71 75 77 76 77 78 77 78 78 78 79 79 77 78 73 76 77 78 77 77 75 72 75 72 70 68 67 70 69 67 68 67 71 70 69 62 64 67 67 70 66 70 69 69 68 69 64 67 71 73 75 73 72 73 75 75 75 73 73 73 73 73 73 73 73 73 73 73 73 74 73 73 73 74 74 74 74 74 73 72 71 71
71 73 71 70 72 75 76 76 78 79 79 79 79 77 78 77 76 76 73 77 78 77 78 74 76 74 73 74 69 68 67 70 67 65 63 65 67 65 73 72 65 65 70 74 73 70 68 64 63 79 77 76 73 74 71 68 70 76 75 73 73 72 72 72 72 72 72 72 72 72 73 73 74 74 73 73 74 74 74 74 73 74 73 72 71
71 73 74 74 73 74 76 75 76 78 78 78 76 79 78 77 77 77 79 78 77 76 76 73 72 72 74 76 75 71 72 73 66 70 70 69 69 69 70 68 66 65 67 77 75 67 64 69 69 66 66 72 74 78 75 73 70 76 74 73 74 72 71 71 71 71 71 71 72 72 72 72 72 72 72 73 73 74 74 73 73 73 73 72 72
72 74 72 74 74 74 75 74 76 76 78 78 78 77 78 77 79 77 77 72 76 76 76 74 72 74 72 76 80 70 73 69 71 71 72 71 74 74 76 77 72 69 70 68 68 69 65 68 66 69 70 73 71 74 75 70 68 76 76 73 74 74 71 70 71 71 70 70 70 71 71 71 71 72 72 72 73 73 73 72 72 73 73 72 72
71 71 72 73 75 74 73 72 75 76 77 78 77 78 78 77 76 78 77 73 77 77 77 75 75 70 71 72 76 76 77 76 75 72 78 76 75 77 80 75 76 72 69 69 69 68 68 64 63 74 72 73 76 72 75 72 71 75 75 74 73 73 73 70 70 70 70 70 69 69 70 70 70 71 71 71 71 71 71 71 71 71 71 72 72
69 67 70 72 74 75 74 75 75 75 75 75 77 77 77 77 76 78 76 78 77 78 77 75 75 75 73 73 72 74 75 73 73 70 77 81 78 77 76 77 77 72 72 69 69 71 70 68 63 73 76 78 78 78 74 74 73 72 73 73 72 71 70 70 69 69 69 69 69 68 68 69 69 69 70 70 70 70 70 70 70 70 70 70 70
70 74 72 71 72 74 75 75 76 75 75 75 77 77 77 77 76 76 76 78 78 78 78 77 74 75 76 74 77 78 77 77 77 73 78 75 76 76 77 77 78 76 73 73 70 73 73 70 69 67 71 77 70 69 70 70 70 70 70 71 72 71 70 70 69 69 68 68 68 68 68 68 68 68 68 69 69 69 69 69 69 69 69 69 69
69 70 73 70 71 72 72 72 72 73 74 73 74 76 76 76 75 73 73 76 76 76 75 74 72 75 75 75 76 77 78 78 77 75 76 77 77 77 76 75 76 76 75 74 71 71 75 71 70 70 69 70 76 74 73 73 72 71 70 70 71 71 71 70 70 69 68 68 68 67 67 67 66 66 67 68 68 69 69 69 69 69 69 68 68
70 68 71 72 73 72 71 72 71 72 74 73 74 75 76 76 76 76 76 77 75 76 76 76 73 74 75 75 75 76 77 76 76 74 73 75 75 75 76 77 76 76 75 74 72 71 73 74 74 72 71 73 70 73 71 70 71 73 72 73 74 73 72 72 72 70 68 67 67 67 67 66 66 66 67 67 68 68 69 69 69 68 68 68 68
71 68 70 70 72 73 72 72 73 72 74 75 73 74 75 75 75 73 74 76 77 75 76 76 76 75 76 77 75 75 77 75 74 72 72 70 70 71 74 73 74 75 75 73 73 72 71 74 75 75 73 72 71 75 73 73 72 73 73 74 74 74 75 74 73 73 70 68 67 66 66 66 65 66 66 67 67 68 68 68 68 67 67 68 67
71 70 70 69 72 74 73 73 74 73 74 74 74 74 74 75 75 73 73 73 74 74 74 75 75 75 75 75 74 74 73 73 74 73 71 72 72 74 75 76 74 73 75 75 74 72 72 73 75 72 72 75 75 74 75 75 75 75 75 75 73 73 74 74 74 72 70 68 67 67 66 66 66 65 65 65 66 66 66 66 66 66 66 65 65
69 71 72 71 73 74 74 74 74 73 74 73 73 73 74 74 74 75 75 74 73 73 74 74 74 74 74 75 73 73 73 74 75 75 75 74 75 76 74 73 75 75 77 78 77 75 74 73 75 74 75 74 75 75 76 75 74 74 74 75 74 74 73 74 73 72 71 69 68 67 66 66 65 65 64 65 64 64 64 64 64 64 63 63 63
69 70 72 73 74 74 73 74 74 73 73 73 73 71 72 73 74 73 74 75 74 74 74 75 75 75 75 74 74 74 74 74 74 73 73 74 75 74 73 74 75 75 74 74 74 75 74 73 74 75 76 76 76 75 75 74 74 75 76 76 76 76 76 74 73 71 70 68 68 68 67 66 66 65 65 64 64 63 63 63 63 62 62 62 61
69 69 71 72 73 74 74 74 74 74 73 74 74 72 71 71 73 73 74 74 73 74 74 74 74 75 74 74 74 74 74 73 72 73 74 74 74 74 74 75 76 77 77 77 77 77 76 75 74 74 75 74 74 75 76 76 74 74 75 76 75 75 75 74 72 71 71 71 71 72 70 69 66 65 65 65 64 63 63 63 63 62 61 60 59
68 68 70 72 73 74 74 74 74 74 73 73 74 74 73 72 72 73 72 73 73 73 73 73 72 73 73 73 74 74 74 74 73 73 74 74 74 74 76 77 76 76 75 75 77 77 76 74 74 74 74 75 74 74 77 78 77 75 72 72 73 74 75 75 76 75 73 72 71 70 71 71 70 69 66 64 63 63 63 62 62 61 61 60 59
69 68 68 71 73 73 74 74 74 75 74 73 74 75 74 73 73 73 72 72 72 72 72 73 72 71 72 72 71 72 73 74 74 74 74 74 75 75 75 75 76 76 76 76 76 76 75 74 74 74 75 75 75 75 74 74 73 74 74 74 73 73 73 77 76 75 76 77 76 74 71 71 71 70 68 68 66 64 63 63 64 64 63 61 60
70 69 68 69 71 71 72 74 74 74 73 73 73 74 74 74 73 71 72 72 72 72 72 71 73 73 72 71 71 70 73 76 75 74 74 75 74 75 76 76 77 77 77 76 76 76 76 75 74 75 74 74 74 74 74 74 74 74 75 73 73 75 76 75 77 77 76 75 75 75 75 76 75 75 75 75 75 73 71 66 67 67 65 62 61
72 72 70 70 70 71 72 74 74 73 73 73 72 68 71 74 73 70 71 73 73 72 73 73 72 72 70 69 68 75 75 77 74 72 71 72 74 74 76 78 78 77 77 76 76 76 75 74 73 73 72 72 72 73 74 74 74 74 73 75 74 75 75 74 75 77 78 77 76 76 76 76 75 75 75 75 74 74 74 75 73 70 67 64 63
72 74 72 70 69 71 71 72 73 73 72 72 69 66 66 69 73 73 72 73 74 74 73 74 73 71 70 71 71 72 75 77 77 74 72 71 71 72 73 75 78 78 75 75 74 74 74 74 74 74 72 73 74 74 73 72 72 73 75 75 75 75 74 73 73 75 82 80 76 75 75 76 76 75 75 75 74 74 74 74 69 67 65 63 63
73 72 71 71 71 71 71 72 73 73 73 69 65 65 65 66 70 74 73 72 73 74 74 73 73 72 71 69 69 68 70 72 72 77 74 71 69 70 69 70 70 70 71 72 71 71 72 72 72 72 71 71 73 74 73 72 73 74 76 75 75 74 74 74 74 73 76 77 76 74 74 75 76 75 74 74 74 74 72 69 66 64 63 63 63
72 73 73 71 71 70 71 72 71 72 72 67 63 63 64 65 66 72 74 73 72 72 73 74 73 73 72 72 70 69 65 75 74 73 76 74 69 67 68 69 69 68 66 66 67 72 72 72 71 71 72 73 72 72 73 73 76 75 74 74 75 76 75 74 74 74 75 76 75 74 73 74 75 74 74 74 73 72 71 67 64 64 63 63 62
73 73 72 72 72 72 71 72 73 72 72 67 61 62 63 64 65 68 75 75 74 72 73 74 73 73 74 73 73 72 71 72 75 75 75 77 76 74 73 73 73 73 69 65 65 64 68 72 72 71 72 73 73 74 75 76 75 75 75 75 75 75 75 74 75 75 75 75 74 73 73 74 75 72 70 71 72 71 70 66 64 64 63 62 61
72 73 72 71 72 72 70 71 73 70 69 64 60 61 61 62 64 66 75 75 75 74 74 74 75 74 74 74 74 73 74 74 74 75 76 76 77 78 76 74 73 74 74 73 72 70 69 69 71 72 73 73 74 75 76 77 76 76 75 76 77 75 75 75 75 75 75 75 75 75 71 69 70 69 70 70 68 68 69 65 64 63 62 61 62
69 73 73 72 72 72 71 70 69 70 69 61 60 60 60 61 63 71 75 75 75 75 76 76 76 76 75 75 75 74 74 75 75 71 73 76 76 76 76 77 77 76 76 76 71 70 73 72 72 72 72 73 71 75 76 77 77 77 75 74 74 74 74 74 73 73 71 71 72 69 67 68 70 67 67 68 68 66 66 66 64 64 63 62 62
69 70 72 71 73 71 72 72 71 71 70 63 58 59 59 60 63 72 74 74 75 74 74 76 77 77 77 76 77 75 75 76 73 67 67 75 75 75 76 76 76 75 75 75 70 67 67 66 65 67 67 67 66 65 64 63 68 71 74 73 73 73 73 72 72 71 70 69 69 68 69 68 69 68 66 66 65 65 66 67 68 63 62 62 62
68 69 71 73 73 72 71 72 71 72 71 67 57 58 58 59 65 73 74 74 74 74 75 75 76 76 76 77 78 77 76 76 71 66 65 72 76 76 75 74 73 73 74 73 70 70 64 64 65 65 66 65 65 63 62 62 62 67 72 72 73 73 73 73 71 70 71 71 69 69 68 68 68 68 65 65 65 67 66 68 67 66 65 63 62
70 72 73 72 72 73 71 71 72 72 70 69 55 58 56 57 65 74 75 74 74 74 74 74 75 75 75 76 76 75 75 74 68 65 64 71 75 76 76 74 74 74 74 74 73 72 74 75 73 72 71 69 70 72 72 68 66 69 72 73 73 74 73 73 71 71 69 70 68 70 67 67 66 66 65 64 63 65 67 67 67 67 65 66 67